Regional Weather Roundup
Issued by NWS

Home | Current Version | Previous Version | Graphics & Text | Print | Product List | Glossary On
Versions: 1 2 3 4 5 6 7 8 9 10 11 12 13 14 15 16 17 18 19 20 21 22 23 24 25 26 27 28 29 30 31 32 33 34 35 36 37 38 39 40 41 42 43 44 45 46 47 48 49 50
475
ASUS44 KLIX 221310
RWRLA
LOUISIANA WEATHER ROUNDUP
NATIONAL WEATHER SERVICE NEW ORLEANS LA
800 AM CDT WED OCT 22 2014

NOTE: "FAIR" INDICATES FEW OR NO CLOUDS BELOW 12,000 FEET WITH NO
      SIGNIFICANT WEATHER AND/OR OBSTRUCTIONS TO VISIBILITY.
      SKY/WX - SKY CONDITION AND SIGNIFICANT WEATHER.
      TMP - AIR TEMPERATURE.    DP   - DEWPOINT TEMPERATURE.
      RH  - RELATIVE HUMIDITY.  PRES - PRESSURE.
      HX  - HEAT INDEX.         WCI  - WIND CHILL INDEX.

*  THESE STATIONS ARE NOT NWS OR FAA STATIONS AND ARE NOT UNDER
   NWS QUALITY CONTROL.

LAZ040-048-061>063-065-066-069-221400-
SOUTHEAST LOUISIANA

CITY           SKY/WX    TMP DP  RH WIND       PRES   REMARKS
N.O. AUDUBON     N/A     67  58  72 MISG        N/A
N.O. INTL ARPT SUNNY     68  58  70 NE10      30.07R
N.O. LAKEFRONT SUNNY     68  56  65 NE18      30.07R
N.O. DOWNTOWN* FAIR      66  52  59 N5        30.07R
SLIDELL        SUNNY     55  52  89 N5        30.08R
BATON ROUGE    CLEAR     59  54  83 NE5       30.09R
BOOTHVILLE     SUNNY     72  64  76 NE10G17   30.04R
BELLE CHASSE   SUNNY     64  57  78 NE5       30.06R
BOGALUSA*        N/A     55  52  90 N3        30.10S
NEW ROADS*     FAIR      61  54  79 NE6       30.09R
GONZALES*      FAIR      59  58  96 NE3       30.08R
HAMMOND*       CLEAR     61  52  72 NE3       30.11R
HOUMA*         CLEAR     61  61 100 N6        30.05R
PORT FOURCHON* SUNNY     72  64  78 NE9       30.07R

$$

LAZ041-044-053-054-221400-
SOUTHWEST LOUISIANA

CITY           SKY/WX    TMP DP  RH WIND       PRES   REMARKS
LAKE CHARLES   CLEAR     61  58  90 NE6       30.08R
LAFAYETTE      CLEAR     59  57  93 NE5       30.07R
PATTERSON      CLEAR     61  57  88 NE5       30.09R
SALT POINT       N/A     63  59  87 VRB3      30.06R
NEW IBERIA     CLEAR     63  58  83 NE8       30.07R
CHENAULT AIRPK NOT AVBL

$$

LAZ027-028-221400-
CENTRAL LOUISIANA

CITY           SKY/WX    TMP DP  RH WIND       PRES   REMARKS
FORT POLK      PTCLDY    62  59  91 NE7       30.10R
ALEXANDRIA INT CLEAR     57  56  96 CALM      30.09R
ALEXANDRIA     CLEAR     54  53  97 CALM      30.10S FOG

$$

LAZ001-002-221400-
NORTHWEST LOUISIANA

CITY           SKY/WX    TMP DP  RH WIND       PRES   REMARKS
SHREVEPORT     CLEAR     56  55  97 CALM      30.13R
BARKSDALE AFB  CLEAR     55  54  94 VRB2      30.13R
DTN SHREVEPORT CLEAR     54  52  93 CALM      30.13R

$$

LAZ014-016-221400-
NORTHEAST LOUISIANA

CITY           SKY/WX    TMP DP  RH WIND       PRES   REMARKS
MONROE         CLEAR     51  49  92 NE5       30.15R
TALLULAH       CLEAR     53  52  96 CALM      30.14R

$$




USA.gov is the U.S. government's official web portal to all federal, state and local government web resources and services.